This is the latest recevied weather packets stored in our database for station/object N4DLW-3. If no packets are shown the sender has not sent any weather packets the latest 10 day(s).
| Time | Temp. | Humidity | Pressure | Rain* | Wind** | Luminosity | Snow |
|---|---|---|---|---|---|---|---|
| 1778083187 | 32.22° C | 54% | 1016.5 hPa | 0 mm | - | - | - |
| 1778082873 | 31.67° C | 56% | 1016.5 hPa | 0 mm | - | - | - |
| 1778082585 | 31.67° C | 56% | 1016.5 hPa | 0 mm | - | - | - |
| 1778081989 | 31.11° C | 56% | 1016.5 hPa | 0 mm | - | - | - |
| 1778081675 | 31.11° C | 57% | 1016.5 hPa | 0 mm | - | - | - |
| 1778081388 | 31.11° C | 57% | 1016.6 hPa | 0 mm | - | - | - |
| 1778081075 | 31.67° C | 56% | 1016.7 hPa | 0 mm | - | - | - |
| 1778080789 | 31.67° C | 56% | 1016.6 hPa | 0 mm | - | - | - |
| 1778080481 | 31.11° C | 59% | 1016.5 hPa | 0 mm | - | - | - |
| 1778080176 | 31.11° C | 57% | 1016.6 hPa | 0 mm | - | - | - |
| 1778079882 | 31.11° C | 60% | 1016.4 hPa | 0 mm | - | - | - |
| 1778079575 | 30.56° C | 61% | 1016.5 hPa | 0 mm | - | - | - |
| 1778079282 | 30.56° C | 62% | 1016.5 hPa | 0 mm | - | - | - |
| 1778078996 | 30.56° C | 61% | 1016.6 hPa | 0 mm | - | - | - |
| 1778078684 | 30.56° C | 60% | 1016.6 hPa | 0 mm | - | - | - |
| 1778078397 | 30.56° C | 60% | 1016.5 hPa | 0 mm | - | - | - |
| 1778078083 | 30.56° C | 63% | 1016.6 hPa | 0 mm | - | - | - |
| 1778077797 | 30° C | 64% | 1016.6 hPa | 0 mm | - | - | - |
| 1778077483 | 29.44° C | 66% | 1016.5 hPa | 0 mm | - | - | - |
| 1778077171 | 29.44° C | 66% | 1016.6 hPa | 0 mm | - | - | - |
| 1778076889 | 29.44° C | 67% | 1016.6 hPa | 0 mm | - | - | - |
| 1778076586 | 28.89° C | 68% | 1016.6 hPa | 0 mm | - | - | - |
| 1778076289 | 28.89° C | 69% | 1016.6 hPa | 0 mm | - | - | - |
| 1778075975 | 28.33° C | 71% | 1016.7 hPa | 0 mm | - | - | - |
| 1778075686 | 27.78° C | 72% | 1016.6 hPa | 0 mm | - | - | - |
* Rain latest hour (hover to see other rain measurements)
** Current wind speed in m/s (hover to see current wind gust speed)